Temp
-1 -0 -0 -0 -0 -0 1 1 1 2 2 3 3 3 3 4 4 5 5 5 6 6 7 6 6 7 7 8 8 8 10 12 13 13 14 11 10 10 10 11 13 13 13 12 16 17 13 13 13 12 13 13 11 13
-1 -1 -0 -0 -1 -1 0 1 1 1 2 2 3 3 3 4 4 4 4 5 5 6 7 7 8 8 9 8 9 8 9 10 11 12 11 10 10 10 11 11 12 12 13 12 13 13 13 12 11 12 12 8 13 13
-1 -1 -0 -0 -0 -1 -1 0 1 1 1 2 2 3 3 3 4 4 4 5 5 6 7 7 7 7 9 9 9 9 10 9 10 10 10 9 7 10 11 10 11 10 12 12 12 13 13 13 13 13 13 13 12 12
-1 -1 -1 -0 -0 0 -0 -1 0 0 0 1 2 2 3 3 3 4 4 4 5 6 7 7 7 7 8 8 9 9 10 10 9 10 11 9 8 9 10 10 10 10 10 12 13 12 11 12 12 12 12 12 12 11
-2 -1 -1 -1 -1 -0 0 0 0 1 1 1 1 1 2 3 3 3 4 4 5 5 5 7 7 7 7 8 9 9 9 10 9 10 12 12 11 10 11 11 10 10 12 9 10 11 11 11 11 11 11 11 11 11
-1 -1 -1 -1 -1 -0 -0 0 1 1 1 1 1 1 2 2 3 3 3 4 4 5 5 5 7 7 7 7 8 9 9 9 9 10 11 12 11 11 12 13 12 11 10 11 10 10 11 11 10 11 10 10 10 11
-2 -1 -1 -1 -1 -0 -0 -0 0 0 0 1 1 1 2 2 2 3 4 4 4 4 5 5 7 7 7 7 8 7 8 8 9 10 10 11 11 10 11 12 12 11 11 10 11 10 10 10 10 10 10 9 9 8
-2 -2 -1 -1 -1 -1 -0 -0 0 -0 0 0 -0 1 2 2 2 2 3 3 4 4 5 4 7 8 7 8 8 8 8 8 9 9 10 10 10 10 10 11 11 10 9 9 9 9 10 9 9 9 9 8 8 7
-2 -2 -1 -1 -1 -1 -0 -0 -0 -0 -0 -1 -1 -0 0 1 2 3 3 3 3 4 4 5 7 7 8 8 8 8 8 9 9 9 9 10 10 10 10 10 9 9 9 9 8 8 9 8 8 8 8 8 8 7
-2 -2 -2 -1 -1 -1 -0 -0 -0 -0 -1 -1 -1 -1 0 1 2 2 2 3 3 4 4 6 6 6 7 9 8 9 9 9 9 9 9 9 9 9 9 9 9 9 8 8 8 8 8 8 7 7 7 8 7 7
-2 -2 -2 -2 -1 -1 -1 -1 -1 -0 -1 -1 -1 -0 0 1 1 2 2 2 2 3 4 7 6 6 7 8 9 9 8 9 10 10 9 9 9 7 8 8 8 8 8 7 7 7 8 7 7 6 6 6 6 6
-3 -2 -2 -2 -2 -2 -1 -1 -1 -0 0 1 0 0 1 1 2 2 2 3 3 4 6 6 6 6 7 7 7 8 8 8 8 8 8 8 7 7 8 7 6 6 6 6 6 7 7 7 7 7 7 6 6 6
-4 -3 -3 -2 -2 -2 -1 -1 -1 -1 -1 -0 -0 -0 0 1 1 2 2 3 4 5 5 6 6 6 6 6 7 7 6 8 8 8 7 5 5 5 5 5 5 6 6 6 7 7 7 6 6 6 6 6 6 5
-4 -4 -3 -3 -2 -2 -2 -1 -1 -1 -1 -1 -1 -0 0 1 2 3 4 4 4 5 5 5 5 6 6 6 7 7 7 7 8 7 6 6 5 5 5 4 4 4 5 5 5 5 5 5 5 5 5 5 5 4
-5 -4 -4 -3 -3 -2 -2 -1 -1 -1 -2 -1 -0 1 1 2 3 2 3 3 4 4 5 5 5 6 6 6 7 5 6 5 7 6 5 5 4 6 4 4 4 4 3 4 4 5 5 5 5 4 4 4 4 4
-5 -4 -4 -3 -3 -2 -2 -2 -2 -2 -2 -1 0 1 2 2 2 2 3 3 3 3 4 4 4 5 5 6 6 7 7 6 5 5 5 5 5 4 3 3 4 3 3 3 4 4 4 4 3 3 3 3 3 2
-5 -4 -4 -3 -3 -2 -2 -2 -2 -2 -2 -1 1 1 1 2 2 2 2 2 3 3 3 3 4 4 4 4 6 6 5 5 5 5 5 4 4 4 4 4 3 2 2 2 3 2 2 2 1 1 2 2 2 2
-4 -4 -4 -3 -3 -3 -2 -2 -2 -2 -1 -0 -0 0 1 2 2 2 2 2 2 2 3 4 4 4 4 4 4 4 5 5 5 5 4 4 4 3 3 3 2 2 2 1 1 1 2 2 1 2 2 1 0 1
-4 -4 -4 -3 -3 -3 -3 -3 -2 -2 -1 -0 0 1 1 1 1 1 1 2 2 3 3 3 3 3 3 3 4 4 3 3 4 4 3 3 3 3 2 2 2 2 2 1 1 1 1 1 1 0 1 1 1 0
-4 -4 -4 -4 -4 -4 -3 -2 -2 -1 -0 -0 0 0 -0 1 2 2 2 2 2 2 2 2 2 2 3 2 2 3 2 2 2 3 2 2 2 2 1 1 1 1 -0 1 1 2 1 0 1 1 1 1 1 0
-4 -5 -5 -5 -4 -3 -3 -2 -2 -1 -1 -0 -0 -0 0 0 1 1 0 1 1 1 1 1 1 1 2 2 2 2 2 2 2 1 1 1 1 1 1 1 1 0 0 1 -0 -0 1 2 1 1 1 1 1 1
-5 -5 -4 -4 -3 -2 -2 -2 -2 -2 -1 -1 -1 -1 -0 0 0 0 0 1 1 1 1 1 1 1 1 1 0 -1 0 1 1 1 1 1 -0 -0 0 -0 -0 -0 -0 1 0 0 1 1 1 1 1 1 1 1
-5 -4 -4 -3 -3 -2 -2 -2 -2 -2 -1 -1 -0 0 0 0 0 0 0 0 0 0 0 0 0 0 -0 -0 0 0 0 0 0 0 -0 -0 -1 -1 -1 -0 -0 -0 -0 0 1 1 1 1 1 0 1 0 0 0
-4 -4 -3 -3 -2 -3 -3 -3 -2 -2 -1 -1 -0 -0 0 0 -0 0 0 0 0 0 -0 -0 -0 -0 -0 0 0 -0 -0 -0 -1 -0 -0 -1 -2 -1 -0 1 1 1 0 1 0 0 0 0 -0 -1 -0 -0 -1 -1
-3 -3 -3 -3 -3 -2 -2 -2 -1 -1 -1 -1 -1 -1 -0 -0 0 -0 -0 -0 -0 -0 -0 -0 -0 -0 -0 -0 -0 -1 -1 -1 -1 -1 -1 -1 -2 -3 -2 1 1 0 0 -0 -0 -1 -1 -1 -1 -1 -1 -1 -2 -2
-3 -3 -3 -3 -2 -1 -1 -1 -1 -1 -1 -1 -1 -0 -0 -1 -1 -1 -0 -0 -0 -0 -0 -1 -1 -1 -1 -1 -1 -0 -1 -1 -1 -0 -1 -1 -1 -0 -0 -1 -1 0 -0 -1 -1 -1 -2 -2 -2 -2 -2 -2 -2 -3
-3 -2 -2 -2 -2 -2 -2 -1 -1 -1 -1 -1 -1 -0 0 0 -0 -0 -0 -1 -1 -1 -1 -1 -1 -1 -1 -0 -0 -0 -0 -1 -1 -0 0 0 0 -0 -0 -1 -1 -1 -1 -1 -2 -2 -2 -2 -2 -3 -3 -3 -3 -3
-2 -2 -2 -2 -2 -2 -2 -1 -1 -1 -1 -0 -0 -0 -1 -0 -0 -1 -1 -1 -1 -1 -1 -1 -1 -1 -0 -1 -1 -0 -0 -0 -0 0 0 0 -0 -1 -1 -1 -1 -1 -2 -2 -2 -2 -3 -3 -3 -3 -3 -4 -4 -4
-2 -2 -2 -1 -1 -1 -1 -1 -1 -1 -1 -0 -0 0 0 0 -0 -1 -1 -1 -1 -1 -1 -1 -1 -1 -1 -1 -1 -1 -2 -3 -2 -2 -2 -4 -3 -2 -2 -2 -2 -2 -2 -2 -2 -3 -3 -3 -3 -4 -4 -4 -4 -5
-2 -2 -2 -2 -1 -2 -2 -2 -1 -1 -0 -0 0 0 0 -0 -0 -1 -2 -2 -2 -2 -2 -2 -2 -4 -4 -3 -2 -2 -1 -1 -2 -2 -2 -2 -3 -2 -2 -2 -2 -3 -3 -3 -3 -3 -3 -3 -4 -5 -5 -6 -6 -5
-2 -2 -2 -2 -2 -2 -2 -2 -1 -1 -0 -0 -1 -2 -1 -1 -2 -2 -2 -2 -3 -3 -4 -4 -4 -4 -4 -4 -4 -5 -5 -2 -1 -2 -2 -2 -3 -2 -2 -3 -3 -3 -3 -3 -3 -4 -4 -5 -5 -5 -5 -5 -5 -5
-2 -2 -2 -2 -2 -2 -2 -2 -1 -1 -1 -2 -3 -3 -3 -3 -3 -2 -3 -3 -4 -4 -3 -4 -4 -5 -4 -3 -2 -2 -3 -3 -2 -2 -2 -2 -2 -2 -3 -3 -3 -3 -3 -3 -4 -4 -5 -5 -5 -5 -5 -5 -5 -5
-2 -2 -1 -2 -3 -3 -3 -3 -3 -3 -3 -3 -3 -4 -3 -4 -4 -4 -4 -3 -4 -4 -4 -4 -4 -2 -2 -2 -2 -2 -2 -2 -2 -2 -3 -3 -3 -3 -3 -3 -3 -3 -3 -3 -4 -4 -4 -4 -5 -5 -5 -5 -5 -5
Height
3071 3072 3074 3076 3078 3080 3083 3085 3087 3089 3092 3095 3097 3098 3100 3101 3102 3103 3104 3104 3104 3103 3104 3104 3104 3102 3108 3114 3112 3106 3107 3114 3112 3111 3112 3112 3110 3120 3122 3124 3121 3122 3122 3128 3123 3116 3124 3137 3138 3144 3139 3137 3138 3142
3067 3068 3070 3071 3074 3076 3079 3081 3083 3086 3088 3091 3093 3095 3096 3098 3099 3100 3100 3101 3100 3100 3102 3099 3100 3099 3103 3110 3114 3116 3119 3114 3111 3110 3108 3111 3117 3122 3116 3125 3126 3128 3127 3128 3132 3131 3129 3133 3127 3123 3126 3127 3138 3141
3062 3063 3065 3067 3069 3071 3074 3077 3079 3082 3084 3086 3088 3091 3093 3094 3096 3097 3098 3098 3098 3098 3098 3099 3099 3098 3098 3104 3108 3111 3112 3108 3111 3111 3111 3112 3120 3123 3119 3127 3126 3128 3131 3127 3122 3123 3126 3127 3129 3127 3138 3139 3139 3140
3059 3059 3060 3062 3064 3066 3069 3072 3074 3077 3080 3082 3084 3087 3089 3091 3093 3095 3095 3096 3096 3097 3097 3100 3100 3097 3096 3098 3101 3103 3104 3106 3110 3113 3115 3112 3112 3118 3123 3123 3123 3125 3128 3130 3124 3127 3122 3129 3128 3130 3136 3137 3137 3136
3055 3056 3056 3057 3059 3061 3064 3066 3069 3071 3075 3077 3080 3082 3085 3087 3090 3092 3093 3094 3094 3098 3096 3095 3097 3098 3098 3097 3098 3100 3102 3104 3108 3114 3117 3119 3114 3117 3119 3114 3116 3123 3122 3125 3129 3126 3128 3130 3126 3130 3133 3134 3134 3133
3050 3051 3052 3053 3054 3057 3059 3061 3064 3067 3069 3072 3074 3077 3081 3084 3087 3089 3091 3092 3092 3094 3096 3096 3098 3097 3097 3096 3096 3099 3101 3104 3107 3110 3114 3116 3116 3115 3116 3117 3120 3117 3121 3122 3125 3131 3129 3128 3125 3129 3131 3132 3131 3131
3044 3045 3047 3049 3050 3052 3054 3057 3059 3062 3065 3067 3070 3073 3077 3080 3083 3087 3089 3091 3091 3093 3094 3096 3095 3095 3094 3094 3096 3098 3100 3102 3105 3108 3110 3112 3111 3113 3116 3119 3120 3112 3105 3111 3119 3121 3125 3125 3125 3126 3130 3130 3129 3127
3038 3040 3041 3043 3046 3048 3050 3052 3055 3058 3060 3063 3067 3069 3073 3077 3081 3083 3086 3088 3089 3091 3093 3094 3094 3095 3093 3095 3097 3099 3101 3102 3103 3104 3108 3110 3112 3114 3115 3118 3118 3116 3117 3117 3119 3119 3121 3122 3123 3124 3126 3126 3127 3126
3034 3035 3036 3039 3041 3044 3046 3049 3052 3055 3057 3061 3065 3068 3072 3075 3078 3081 3084 3086 3088 3092 3090 3092 3092 3094 3095 3096 3098 3099 3100 3101 3102 3103 3104 3106 3107 3108 3108 3111 3110 3110 3112 3114 3116 3117 3118 3118 3120 3120 3122 3123 3124 3122
3029 3030 3032 3034 3038 3041 3043 3046 3049 3052 3056 3060 3064 3067 3071 3073 3077 3080 3083 3084 3086 3086 3087 3087 3091 3092 3094 3097 3097 3099 3099 3099 3099 3101 3102 3102 3104 3100 3102 3103 3104 3105 3107 3109 3111 3113 3114 3114 3114 3115 3116 3118 3122 3120
3025 3026 3027 3030 3034 3037 3040 3043 3046 3050 3053 3058 3062 3066 3070 3072 3076 3079 3081 3083 3084 3086 3083 3085 3090 3094 3095 3095 3096 3097 3096 3097 3096 3098 3100 3100 3101 3097 3099 3099 3102 3103 3105 3109 3106 3106 3108 3112 3112 3114 3116 3118 3120 3117
3022 3023 3024 3027 3030 3034 3037 3040 3043 3048 3052 3057 3062 3066 3069 3072 3075 3077 3078 3081 3081 3083 3083 3083 3087 3090 3092 3092 3094 3095 3096 3097 3096 3095 3095 3095 3097 3097 3097 3100 3101 3102 3102 3102 3102 3106 3108 3109 3111 3112 3113 3114 3114 3113
3019 3020 3022 3025 3028 3031 3035 3038 3042 3047 3052 3057 3062 3065 3068 3070 3071 3073 3073 3075 3077 3078 3081 3083 3086 3087 3089 3090 3093 3093 3095 3095 3094 3092 3088 3091 3097 3096 3096 3097 3096 3098 3098 3101 3104 3105 3106 3107 3109 3110 3110 3110 3110 3110
3017 3018 3020 3023 3026 3030 3034 3037 3041 3046 3051 3056 3060 3063 3065 3065 3066 3069 3071 3072 3075 3076 3078 3081 3082 3086 3088 3089 3091 3091 3090 3091 3090 3089 3089 3092 3092 3092 3090 3093 3096 3097 3099 3100 3101 3103 3103 3104 3105 3105 3105 3104 3103 3103
3016 3017 3018 3021 3024 3028 3032 3036 3041 3046 3050 3055 3059 3060 3061 3063 3065 3066 3069 3068 3072 3072 3076 3079 3080 3083 3086 3087 3088 3088 3088 3088 3087 3088 3089 3091 3091 3091 3091 3094 3095 3096 3097 3098 3100 3101 3100 3100 3100 3100 3100 3099 3099 3099
3014 3015 3017 3020 3024 3028 3032 3036 3041 3046 3051 3054 3055 3057 3059 3060 3064 3064 3066 3068 3071 3073 3075 3077 3079 3080 3081 3083 3084 3084 3085 3085 3086 3086 3087 3089 3088 3089 3088 3094 3096 3096 3096 3097 3098 3097 3097 3097 3097 3097 3097 3096 3096 3094
3013 3014 3017 3020 3024 3028 3032 3036 3042 3047 3051 3052 3055 3057 3057 3059 3060 3060 3062 3065 3068 3071 3071 3067 3075 3076 3077 3078 3079 3079 3082 3083 3085 3086 3087 3088 3090 3091 3093 3094 3094 3094 3095 3095 3095 3095 3094 3095 3094 3095 3092 3091 3091 3088
3013 3015 3017 3021 3025 3029 3033 3038 3043 3047 3049 3052 3055 3055 3056 3058 3059 3060 3062 3064 3067 3068 3069 3071 3072 3074 3076 3074 3074 3078 3079 3081 3083 3085 3087 3088 3089 3089 3090 3091 3092 3092 3091 3093 3091 3091 3091 3090 3091 3091 3089 3087 3086 3084
3014 3016 3020 3023 3027 3032 3036 3041 3045 3047 3049 3053 3056 3056 3056 3053 3057 3059 3061 3063 3064 3065 3068 3069 3072 3073 3074 3075 3075 3076 3078 3081 3082 3084 3086 3087 3088 3088 3089 3090 3090 3090 3089 3089 3090 3089 3088 3088 3086 3085 3084 3083 3079 3078
3017 3020 3023 3027 3031 3035 3040 3044 3045 3048 3050 3053 3052 3054 3055 3057 3058 3060 3060 3061 3063 3064 3066 3067 3070 3066 3070 3074 3075 3076 3079 3080 3083 3084 3085 3086 3087 3088 3089 3089 3089 3089 3088 3086 3085 3084 3085 3082 3080 3081 3079 3076 3074 3073
3022 3025 3028 3032 3035 3039 3041 3043 3045 3048 3050 3052 3054 3054 3057 3058 3059 3060 3061 3061 3063 3064 3065 3066 3070 3071 3068 3071 3074 3077 3079 3081 3082 3084 3084 3085 3085 3087 3087 3087 3086 3086 3084 3083 3083 3081 3079 3078 3078 3075 3073 3071 3070 3067
3028 3031 3035 3037 3039 3041 3043 3044 3048 3051 3053 3052 3052 3055 3059 3061 3061 3061 3062 3063 3064 3066 3067 3067 3070 3071 3071 3072 3073 3077 3081 3082 3083 3084 3084 3084 3084 3084 3084 3084 3083 3082 3080 3079 3079 3077 3075 3074 3073 3070 3068 3066 3063 3059
3034 3036 3038 3040 3042 3043 3045 3046 3049 3051 3054 3053 3055 3057 3059 3061 3063 3065 3065 3066 3067 3069 3070 3071 3071 3072 3074 3077 3079 3081 3082 3082 3082 3083 3083 3083 3082 3082 3080 3080 3080 3079 3077 3075 3074 3073 3071 3069 3067 3065 3062 3059 3056 3053
3039 3040 3041 3042 3044 3044 3046 3048 3050 3051 3052 3052 3053 3056 3059 3063 3065 3066 3067 3069 3071 3072 3073 3074 3075 3076 3078 3079 3080 3081 3082 3082 3082 3082 3082 3082 3082 3078 3078 3077 3076 3075 3074 3072 3071 3069 3067 3064 3063 3060 3057 3055 3051 3048
3043 3044 3044 3044 3044 3046 3049 3050 3051 3052 3051 3052 3053 3056 3060 3062 3065 3067 3069 3071 3072 3074 3075 3077 3078 3078 3079 3080 3080 3081 3081 3081 3080 3080 3080 3080 3079 3079 3075 3073 3073 3072 3071 3069 3067 3065 3063 3060 3058 3055 3052 3050 3046 3043
3043 3044 3044 3045 3046 3047 3048 3050 3051 3050 3051 3053 3055 3058 3059 3062 3065 3067 3070 3071 3074 3075 3077 3078 3079 3080 3080 3080 3080 3080 3080 3079 3077 3077 3077 3076 3076 3075 3074 3073 3070 3069 3067 3065 3064 3061 3059 3057 3054 3052 3049 3045 3043 3040
3045 3046 3047 3047 3048 3048 3048 3050 3051 3052 3054 3055 3058 3061 3062 3063 3065 3068 3070 3072 3074 3076 3077 3078 3079 3079 3079 3079 3079 3078 3077 3076 3076 3075 3074 3074 3073 3072 3071 3070 3068 3066 3064 3062 3060 3059 3056 3054 3052 3049 3046 3043 3040 3036
3049 3049 3050 3050 3049 3050 3051 3052 3053 3054 3056 3058 3060 3061 3062 3063 3065 3067 3069 3072 3073 3075 3077 3077 3078 3078 3079 3079 3078 3077 3076 3075 3075 3074 3072 3072 3071 3070 3068 3066 3065 3063 3061 3059 3057 3055 3053 3051 3048 3046 3043 3040 3037 3033
3051 3051 3051 3051 3052 3053 3053 3055 3056 3057 3058 3059 3060 3061 3062 3063 3065 3067 3070 3072 3073 3075 3076 3076 3077 3077 3077 3077 3077 3076 3076 3075 3074 3073 3073 3072 3069 3067 3065 3064 3061 3059 3058 3056 3055 3053 3051 3048 3046 3043 3040 3037 3034 3030
3054 3053 3052 3052 3054 3056 3058 3058 3058 3059 3060 3061 3061 3062 3064 3064 3066 3068 3070 3072 3073 3074 3075 3077 3077 3078 3077 3077 3076 3075 3074 3074 3073 3072 3070 3069 3067 3065 3063 3062 3060 3058 3056 3054 3052 3049 3047 3045 3042 3039 3036 3033 3030 3027
3057 3057 3057 3057 3057 3059 3060 3060 3061 3061 3062 3062 3062 3063 3065 3066 3068 3069 3070 3072 3074 3076 3079 3079 3079 3078 3079 3078 3077 3076 3075 3071 3071 3069 3068 3066 3065 3063 3061 3059 3057 3055 3053 3051 3049 3047 3044 3042 3039 3036 3033 3030 3027 3024
3059 3060 3060 3061 3062 3063 3063 3063 3064 3064 3064 3065 3066 3068 3069 3069 3070 3071 3072 3073 3075 3078 3078 3078 3081 3078 3076 3074 3073 3073 3072 3071 3068 3067 3065 3064 3062 3060 3058 3056 3054 3052 3050 3048 3046 3044 3041 3038 3036 3033 3030 3027 3024 3020
3064 3063 3063 3063 3064 3066 3066 3067 3068 3068 3069 3070 3071 3071 3072 3073 3073 3074 3074 3074 3076 3079 3078 3076 3075 3074 3073 3073 3072 3070 3069 3068 3067 3065 3063 3061 3059 3057 3055 3053 3051 3049 3047 3045 3043 3040 3038 3035 3033 3030 3027 3024 3020 3017
Wind_Speed
14 16 18 17 17 14 14 18 17 14 16 16 13 12 12 12 11 11 10 10 13 16 20 14 13 15 11 4 8 21 7 10 10 13 16 4 3 7 5 7 6 10 5 11 15 17 10 2 12 7 9 14 20 10
15 15 17 19 20 18 17 15 18 17 15 16 15 14 13 13 11 11 14 10 11 14 11 17 13 21 25 14 11 13 9 5 5 3 4 6 3 5 10 15 3 6 13 9 15 2 14 9 6 12 5 21 11 12
15 15 16 18 20 23 23 21 18 18 19 17 16 16 15 14 12 12 11 11 10 11 9 9 5 14 20 18 14 12 7 12 3 5 9 8 11 1 14 23 17 12 10 9 18 1 7 12 18 4 2 6 8 8
13 15 16 17 18 21 25 26 24 24 23 17 17 17 15 15 14 12 11 10 8 5 3 3 7 12 12 16 18 15 16 8 6 6 3 5 13 14 6 1 10 10 14 15 5 8 5 5 4 3 8 6 11 7
17 13 15 17 18 18 20 22 23 22 22 20 17 18 16 16 14 12 10 9 8 8 7 11 9 7 9 11 19 17 15 14 6 2 4 4 3 5 0 5 11 14 2 9 12 3 7 8 5 5 4 7 6 6
17 19 15 14 16 18 18 19 20 20 20 21 18 19 19 17 15 12 10 10 9 9 8 4 7 13 9 11 15 17 17 11 8 3 5 6 3 3 2 3 11 2 8 14 5 3 4 3 0 2 4 7 7 12
17 18 19 17 14 16 17 17 16 16 17 18 19 18 17 17 15 14 12 8 9 10 7 2 5 6 8 8 9 9 9 8 7 6 7 7 7 2 5 10 7 17 12 3 12 9 6 6 5 4 7 9 10 9
17 17 19 18 19 14 15 16 15 15 15 16 15 14 17 17 14 14 13 9 8 10 8 5 4 4 6 6 7 9 8 8 9 9 7 8 7 5 6 7 8 10 7 2 5 6 8 7 7 9 7 10 8 9
15 17 18 18 18 16 14 15 14 14 15 16 15 14 15 14 15 14 12 11 10 12 10 7 6 4 5 9 7 9 9 9 10 12 13 13 13 12 10 13 14 16 16 9 6 4 4 4 5 3 6 11 9 12
13 15 17 17 17 16 13 14 15 15 14 13 16 16 12 13 11 11 10 10 12 14 18 17 7 9 8 11 8 6 9 11 10 11 10 12 12 16 15 17 20 22 22 9 4 5 5 4 1 1 4 6 8 15
12 12 15 16 16 16 14 14 16 16 16 17 17 16 13 11 12 10 7 9 7 6 14 17 11 8 5 8 11 8 11 9 13 12 13 11 11 15 20 19 19 19 7 4 8 11 11 7 3 1 1 4 6 11
10 10 13 15 16 16 15 15 17 19 18 19 18 14 13 12 8 8 9 7 7 9 7 12 11 12 4 9 7 12 4 9 5 6 9 5 11 12 12 2 8 10 12 17 17 17 16 15 12 15 15 15 17 20
8 9 12 14 16 16 15 14 16 17 18 19 19 16 12 10 10 7 9 9 9 9 9 11 11 12 12 8 9 9 14 10 12 8 14 21 9 14 16 16 17 22 23 21 20 17 13 13 13 13 14 15 16 17
7 8 11 13 16 16 16 16 19 21 22 22 16 15 10 7 9 7 9 11 12 8 15 12 13 9 8 10 8 8 9 6 7 9 1 6 10 10 12 16 13 11 10 12 10 9 10 12 14 16 20 22 24 23
6 8 11 13 16 17 17 18 21 24 27 18 10 10 10 3 9 9 12 12 11 12 18 15 11 15 11 8 10 6 4 5 2 4 5 6 9 21 20 16 14 13 10 11 12 11 13 14 14 13 12 14 13 13
5 8 11 14 17 18 19 21 23 27 28 14 8 8 13 12 10 11 17 14 13 11 14 18 12 11 10 6 9 9 6 3 6 5 2 6 4 3 12 4 8 10 10 10 10 14 17 15 12 11 17 17 21 22
5 8 12 15 18 19 21 24 26 28 19 8 8 6 6 13 13 11 9 10 13 9 13 6 11 8 9 7 11 8 7 7 7 2 5 5 7 8 10 10 11 10 11 14 14 12 19 21 15 6 14 17 13 9
7 11 14 17 18 19 21 23 28 18 15 21 9 5 3 9 12 15 11 5 10 8 16 18 12 9 5 6 9 9 11 9 6 5 6 6 4 5 7 7 4 4 4 5 3 7 4 4 4 11 14 15 16 18
11 14 16 17 19 21 22 22 24 15 13 8 5 4 6 9 7 5 5 11 10 9 12 13 15 12 5 4 5 8 7 8 7 7 7 6 4 5 5 5 6 8 8 4 4 10 13 17 15 13 17 19 19 19
15 17 18 19 20 20 12 21 12 9 11 14 9 8 8 5 5 4 8 4 7 8 11 9 17 5 19 14 9 8 7 9 8 7 6 8 7 8 7 8 6 6 8 12 12 12 9 16 19 18 19 20 23 22
18 20 21 20 18 16 8 16 23 2 7 8 8 5 5 2 4 5 2 5 3 4 4 9 21 14 18 20 14 14 16 12 8 5 2 2 0 4 5 6 7 7 11 11 11 15 16 16 16 17 19 20 20 24
19 19 16 15 12 9 5 11 15 8 3 3 7 10 7 2 8 3 5 6 10 11 14 14 13 16 18 17 13 13 6 3 2 1 2 3 4 7 9 9 9 10 15 13 13 15 19 18 17 19 21 21 22 24
18 16 14 11 9 3 6 11 9 6 5 9 7 6 8 7 9 6 7 14 15 10 9 7 9 10 9 7 5 3 2 0 1 1 3 4 7 9 10 10 10 12 14 17 15 16 17 18 19 19 21 21 22 24
13 11 7 7 3 4 8 6 5 7 5 6 7 9 12 14 7 4 13 16 10 7 7 7 7 7 6 4 3 1 0 2 4 4 4 4 6 12 10 10 10 9 11 13 15 16 17 18 18 19 21 21 22 23
5 3 4 3 6 7 6 6 6 6 5 11 10 16 19 13 10 12 13 11 11 10 8 9 9 9 3 4 4 3 2 4 5 6 7 6 4 4 11 15 10 11 13 14 15 16 16 17 17 19 21 20 20 20
3 3 5 5 3 6 8 8 6 6 8 8 15 19 8 10 7 9 15 14 10 6 8 10 6 4 1 4 6 5 7 9 10 9 7 6 7 9 10 11 16 15 14 14 14 14 15 16 18 18 19 21 20 19
6 5 7 6 6 5 7 8 8 8 9 7 12 9 6 4 6 11 12 12 11 9 6 3 3 3 3 5 7 11 10 6 7 8 8 8 8 9 10 12 13 15 13 13 12 13 15 16 18 18 18 19 19 19
7 6 5 8 7 5 8 7 7 7 8 8 11 9 8 6 6 10 13 11 10 9 5 5 6 4 5 9 10 9 8 7 7 7 8 7 7 9 12 13 12 12 13 13 14 15 16 17 18 18 18 17 18 18
7 4 2 4 7 9 8 9 7 8 8 5 5 5 5 5 8 9 9 7 6 5 6 5 4 5 7 7 6 6 5 5 6 6 3 5 10 15 14 13 14 14 15 15 13 13 14 16 17 16 16 17 18 19
7 8 8 10 15 15 12 8 8 4 4 2 1 2 4 5 6 7 8 7 4 1 1 3 1 1 2 3 4 5 6 6 6 7 9 10 12 14 13 13 13 14 14 14 14 17 17 16 17 19 19 19 20 21
7 7 10 15 15 13 10 4 7 6 6 4 6 8 7 9 10 8 8 9 8 7 5 3 1 2 1 1 1 2 7 11 8 9 10 11 12 13 13 14 14 14 15 15 15 16 16 16 17 17 18 20 21 22
10 8 8 10 12 8 6 3 5 7 11 13 15 12 10 9 8 7 7 6 8 3 3 6 1 5 4 5 6 4 6 11 12 12 11 12 12 13 13 14 14 14 15 15 16 16 16 16 17 18 19 19 20 21
10 9 8 8 11 8 9 9 9 10 11 9 9 8 7 6 3 3 2 7 8 3 6 4 4 5 5 6 6 8 8 9 9 11 10 12 14 14 14 14 14 14 14 14 15 15 15 15 17 19 19 19 20 20
Wind_Direction
250 244 238 233 234 223 226 220 230 225 224 226 230 232 240 242 242 247 249 244 239 237 212 240 255 249 257 275 320 243 342 244 250 241 246 135 295 304 69 343 324 292 341 271 246 246 98 135 178 212 184 146 133 181
252 247 241 235 227 220 227 221 224 236 232 230 233 235 238 241 243 246 250 246 253 249 213 241 258 236 231 227 207 196 253 317 297 295 338 114 167 185 69 319 270 312 245 301 328 124 121 111 134 200 77 146 154 157
254 249 245 242 235 225 229 231 228 241 247 236 235 237 235 238 243 244 251 253 268 268 250 264 286 270 236 232 226 212 172 255 201 11 338 311 343 239 242 233 273 262 264 247 297 333 10 246 240 307 90 178 148 148
262 251 245 243 239 235 230 231 237 238 243 246 242 231 232 233 240 243 246 247 263 257 184 123 256 275 244 229 226 224 224 242 316 331 320 232 153 151 211 46 219 278 224 250 254 287 86 99 110 190 197 161 177 147
250 255 248 243 242 239 233 234 238 241 244 242 236 227 231 232 234 237 241 237 236 212 218 197 214 246 273 237 229 225 232 245 288 298 270 254 90 169 93 151 227 181 190 160 240 70 114 104 148 138 156 194 224 248
251 246 249 248 241 239 237 237 238 238 240 236 233 227 228 229 224 226 233 226 223 218 223 216 240 266 220 232 227 229 233 245 266 266 241 253 260 141 280 318 216 38 113 190 72 171 186 243 267 166 229 209 225 272
253 248 243 245 250 240 236 237 237 237 239 228 231 224 221 217 217 217 230 210 215 210 214 279 285 238 220 226 215 219 229 243 252 255 254 240 278 299 240 236 261 354 334 227 272 274 297 312 261 253 234 208 235 215
252 247 243 241 245 248 238 233 231 232 227 216 216 215 203 208 214 215 213 214 207 204 205 223 232 252 204 194 197 202 223 230 250 235 241 244 246 267 234 232 242 256 243 315 295 286 296 266 251 256 215 213 192 194
256 248 242 238 237 238 235 226 222 222 208 202 193 191 194 199 210 210 209 208 205 201 186 211 247 139 190 180 194 203 202 233 244 243 246 251 261 261 250 225 230 232 244 247 293 287 251 235 212 210 188 207 196 225
263 252 239 234 230 228 228 219 212 207 200 201 198 191 194 203 195 198 202 207 216 219 220 214 191 246 198 191 180 194 207 220 219 243 232 230 232 241 249 252 259 269 276 288 279 237 255 229 279 206 229 211 217 240
264 249 232 228 221 218 219 211 203 198 190 183 186 183 184 182 176 179 188 188 201 221 238 214 189 217 212 211 206 211 209 226 235 235 207 234 215 228 239 250 268 276 275 174 239 204 199 163 176 31 243 220 198 254
259 241 226 219 213 208 209 204 198 197 194 188 182 174 169 168 174 187 196 192 203 212 220 209 216 200 188 208 198 226 238 235 241 201 209 267 227 229 245 235 129 151 184 199 208 228 223 256 265 254 233 221 225 230
248 234 222 213 205 202 201 195 187 181 179 176 177 183 174 186 195 192 201 185 196 192 189 180 197 199 220 210 219 274 203 239 235 267 262 223 228 158 163 177 179 196 208 221 235 239 236 247 250 257 258 257 264 270
235 228 216 206 199 195 192 183 181 177 169 166 170 188 191 193 200 185 217 198 190 187 193 185 203 190 203 202 203 237 247 260 243 250 301 191 195 188 161 174 186 190 216 208 217 232 247 259 262 264 269 273 287 288
236 220 205 197 191 187 183 177 179 175 168 163 164 192 215 145 168 203 199 174 175 180 191 184 198 184 190 199 208 226 223 231 286 231 228 209 244 273 248 193 204 213 210 229 239 253 261 271 280 284 284 284 283 280
231 208 195 187 183 180 175 174 176 174 171 178 201 187 177 204 209 200 205 201 205 205 193 191 194 204 200 204 211 212 225 187 228 204 229 301 245 210 186 247 270 251 262 281 290 268 265 252 253 299 285 285 289 282
195 186 177 176 174 174 173 174 172 173 188 204 168 144 192 207 213 190 169 193 200 193 218 184 195 176 200 223 204 190 202 195 165 202 210 203 238 252 261 265 270 270 275 280 265 254 274 272 296 291 290 300 313 289
168 163 165 166 166 166 170 173 176 179 193 202 207 234 200 208 214 224 196 180 201 211 216 216 213 203 212 232 182 192 188 187 201 200 198 191 219 241 243 264 272 291 332 276 8 288 307 239 253 263 270 279 285 273
153 155 156 158 160 162 163 170 183 207 181 132 182 210 225 125 148 168 213 221 213 218 212 223 222 221 230 214 192 175 175 183 187 187 185 204 256 253 233 246 272 291 296 302 262 254 269 275 279 274 276 304 298 294
142 144 147 146 150 153 147 173 154 166 196 203 225 220 143 199 281 273 237 221 210 214 214 219 199 200 161 143 163 184 211 192 183 194 216 239 252 226 243 290 302 316 312 307 308 294 285 282 291 311 304 297 297 304
134 135 139 140 145 153 147 186 205 111 151 180 190 162 130 68 87 84 85 150 162 183 164 185 192 198 127 135 146 170 155 174 192 185 175 180 206 282 287 292 308 299 287 302 302 294 297 300 313 304 299 301 302 297
131 130 137 143 141 147 168 183 180 191 120 198 149 148 113 194 118 90 114 129 137 152 134 147 155 166 162 152 146 124 118 141 154 236 281 293 308 308 305 295 294 298 302 307 307 297 298 309 308 305 304 307 308 306
127 128 130 138 142 150 170 168 187 206 203 242 239 196 177 172 160 128 114 137 134 146 147 149 133 96 78 70 81 98 140 242 270 283 312 302 301 306 296 291 291 298 288 296 305 305 307 309 312 313 313 317 315 314
130 131 128 144 140 108 163 166 180 187 202 228 223 186 172 154 134 153 156 144 140 127 110 92 88 92 108 90 86 100 223 310 299 307 319 9 339 314 313 317 317 317 310 311 312 313 315 315 320 319 320 322 319 319
111 113 119 130 132 131 171 169 200 184 200 177 140 159 147 141 159 149 142 134 142 131 124 124 115 106 60 67 81 45 346 320 309 286 294 300 317 324 319 322 329 328 321 317 318 317 320 322 324 324 324 328 327 328
80 62 116 118 145 148 163 176 180 187 152 133 139 140 134 120 122 156 159 173 173 180 174 141 138 189 31 347 343 344 335 325 308 309 301 295 294 294 303 307 311 327 321 320 320 320 323 326 329 330 331 332 334 333
61 99 105 86 102 101 109 121 142 139 147 131 144 138 144 143 157 166 168 174 170 179 186 203 230 274 307 315 327 332 333 327 317 320 320 316 313 312 313 315 315 316 318 317 319 322 326 329 331 332 333 334 335 339
79 100 133 113 96 115 113 126 111 103 110 132 152 160 163 185 171 182 184 198 191 200 254 236 252 261 301 304 315 325 323 323 318 321 317 315 320 323 322 321 321 319 320 319 321 325 328 329 330 332 332 336 339 343
65 58 124 139 111 90 92 90 70 102 113 115 160 157 133 123 139 151 155 166 172 219 266 246 280 295 288 286 304 330 342 347 336 336 327 306 317 323 330 329 330 332 332 329 326 324 326 323 325 324 330 335 337 342
70 73 91 123 120 95 79 90 107 147 143 66 79 145 137 140 152 143 149 165 175 216 72 195 248 19 21 343 335 324 308 305 312 313 314 316 320 322 326 328 328 327 324 323 323 323 325 327 334 335 336 337 332 333
110 109 116 114 117 123 103 120 100 96 88 74 132 128 135 124 114 115 137 136 119 92 70 52 64 97 45 351 296 31 303 317 331 324 321 317 313 316 322 325 325 323 322 322 321 321 322 324 328 329 330 330 329 330
93 107 121 133 130 128 118 111 100 108 97 99 107 114 123 113 113 106 95 126 128 123 188 136 180 248 250 304 308 303 296 302 317 330 333 326 323 322 322 323 322 320 318 321 320 323 323 325 324 326 329 330 331 332
80 74 78 124 114 108 103 86 94 90 80 85 98 114 117 124 126 111 120 110 94 140 223 252 261 288 305 295 311 319 328 327 329 323 324 324 323 324 325 323 322 323 325 326 326 326 326 324 327 329 331 334 334 334